カタログに戻る

FENGYUN 1C DEB *

運用中PO
NORAD 47009·DEBRIS·🇨🇳 China

打ち上げ May 10, 1999 から Taiyuan Satellite Launch Center

Loading…

次のパス (今後24時間)

TLE

最新Source: Space-Track

元期: Sep 12, 2026, 03:00 UTC

1 47009U 99025FAK 26255.12534607  .00000026  00000-0  87547-4 0  9996
2 47009  98.9706 211.7492 0351955 298.1958  58.4045 13.37440879624630

AllMySatでFENGYUN 1C DEB *をリアルタイム追跡

Download on the App Store